TimeCDT,TemperatureF,Dew PointF,Humidity,Sea Level PressureIn,VisibilityMPH,Wind Direction,Wind SpeedMPH,Gust SpeedMPH,PrecipitationIn,Events,Conditions,WindDirDegrees,DateUTC
12:15 AM,50.9,42.4,73,30.07,10.0,SSW,6.9,-,N/A,,Clear,200,2013-09-29 05:15:00
12:35 AM,48.2,43.7,84,30.07,10.0,SSW,5.8,-,N/A,,Clear,210,2013-09-29 05:35:00
12:55 AM,47.8,42.8,83,30.07,10.0,SSW,5.8,-,N/A,,Clear,210,2013-09-29 05:55:00
1:15 AM,47.5,43.0,84,30.07,10.0,SSW,5.8,-,N/A,,Clear,210,2013-09-29 06:15:00
1:35 AM,47.7,42.8,83,30.07,10.0,SSW,5.8,-,N/A,,Clear,210,2013-09-29 06:35:00
1:55 AM,47.3,42.3,83,30.08,10.0,SSW,5.8,-,N/A,,Clear,210,2013-09-29 06:55:00
2:15 AM,47.8,42.3,81,30.07,10.0,SW,5.8,-,N/A,,Clear,220,2013-09-29 07:15:00
2:35 AM,48.2,42.4,80,30.08,10.0,SW,6.9,-,N/A,,Clear,220,2013-09-29 07:35:00
2:55 AM,48.2,42.4,80,30.07,10.0,SW,8.1,-,N/A,,Clear,220,2013-09-29 07:55:00
3:15 AM,48.7,42.1,78,30.06,10.0,SW,8.1,-,N/A,,Clear,220,2013-09-29 08:15:00
3:35 AM,49.1,41.9,76,30.06,10.0,SW,8.1,-,N/A,,Clear,220,2013-09-29 08:35:00
3:55 AM,48.7,41.9,77,30.06,10.0,SW,8.1,-,N/A,,Clear,220,2013-09-29 08:55:00
4:15 AM,48.2,41.9,79,30.06,10.0,SW,9.2,-,N/A,,Clear,220,2013-09-29 09:15:00
4:35 AM,48.0,42.1,80,30.05,10.0,SW,8.1,-,N/A,,Clear,220,2013-09-29 09:35:00
4:55 AM,47.7,42.1,81,30.05,10.0,SW,8.1,-,N/A,,Clear,230,2013-09-29 09:55:00
5:15 AM,47.7,42.3,82,30.05,10.0,SW,8.1,-,N/A,,Clear,220,2013-09-29 10:15:00
5:35 AM,46.9,42.3,84,30.05,10.0,SW,6.9,-,N/A,,Clear,220,2013-09-29 10:35:00
6:55 AM,45.3,41.5,87,30.05,10.0,SSW,5.8,-,N/A,,Clear,210,2013-09-29 11:55:00
8:17 AM,48.2,44.6,87,30.04,10.0,SSW,5.8,-,N/A,,Clear,210,2013-09-29 13:17:00
8:35 AM,50.4,43.7,78,30.04,10.0,SW,5.8,-,N/A,,Clear,220,2013-09-29 13:35:00
8:36 AM,51.8,44.6,76,30.04,10.0,SW,6.9,-,N/A,,Clear,220,2013-09-29 13:36:00
8:55 AM,52.7,44.1,72,30.04,10.0,SW,8.1,-,N/A,,Clear,220,2013-09-29 13:55:00
9:15 AM,54.7,44.2,68,30.04,10.0,SW,10.4,-,N/A,,Clear,220,2013-09-29 14:15:00
9:35 AM,56.8,44.6,64,30.05,10.0,SW,6.9,-,N/A,,Clear,220,2013-09-29 14:35:00
9:55 AM,59.0,44.4,58,30.05,10.0,SW,11.5,-,N/A,,Clear,220,2013-09-29 14:55:00
10:15 AM,61.9,45.5,55,30.05,10.0,SW,9.2,-,N/A,,Clear,220,2013-09-29 15:15:00
10:35 AM,64.4,44.4,48,30.04,10.0,SW,11.5,-,N/A,,Clear,230,2013-09-29 15:35:00
10:55 AM,67.5,43.7,42,30.04,10.0,SW,10.4,-,N/A,,Clear,220,2013-09-29 15:55:00
11:15 AM,69.1,41.0,36,30.03,10.0,SW,13.8,-,N/A,,Clear,230,2013-09-29 16:15:00
11:35 AM,70.3,40.6,34,30.02,10.0,SW,16.1,19.6,N/A,,Clear,220,2013-09-29 16:35:00
11:55 AM,71.8,41.2,33,30.01,10.0,SW,16.1,19.6,N/A,,Clear,220,2013-09-29 16:55:00
12:15 PM,72.9,41.5,32,30.00,10.0,SSW,17.3,21.9,N/A,,Clear,200,2013-09-29 17:15:00
12:35 PM,73.9,41.2,31,29.99,10.0,SSW,12.7,24.2,N/A,,Clear,210,2013-09-29 17:35:00
12:55 PM,75.2,40.6,29,29.99,10.0,SSW,13.8,23.0,N/A,,Clear,200,2013-09-29 17:55:00
1:15 PM,76.1,42.4,30,29.98,10.0,SSW,12.7,19.6,N/A,,Clear,210,2013-09-29 18:15:00
1:35 PM,76.3,42.1,29,29.96,10.0,SSW,15.0,-,N/A,,Clear,200,2013-09-29 18:35:00
1:55 PM,77.0,40.6,27,29.95,10.0,SW,16.1,24.2,N/A,,Clear,220,2013-09-29 18:55:00
2:15 PM,78.1,43.2,29,29.93,10.0,SSW,18.4,25.3,N/A,,Clear,200,2013-09-29 19:15:00
2:35 PM,78.1,41.7,27,29.92,10.0,South,17.3,24.2,N/A,,Clear,190,2013-09-29 19:35:00
2:55 PM,77.7,41.0,27,29.91,10.0,SSW,18.4,23.0,N/A,,Clear,200,2013-09-29 19:55:00
3:15 PM,77.9,42.1,28,29.91,10.0,SSW,16.1,24.2,N/A,,Clear,200,2013-09-29 20:15:00
3:35 PM,77.9,41.4,27,29.90,10.0,South,17.3,24.2,N/A,,Clear,180,2013-09-29 20:35:00
3:55 PM,78.1,42.4,28,29.90,10.0,South,17.3,24.2,N/A,,Clear,180,2013-09-29 20:55:00
4:15 PM,77.9,41.5,27,29.89,10.0,SSW,18.4,24.2,N/A,,Clear,200,2013-09-29 21:15:00
4:35 PM,77.9,41.7,27,29.89,10.0,South,16.1,24.2,N/A,,Clear,190,2013-09-29 21:35:00
4:55 PM,77.0,41.2,28,29.88,10.0,SSW,16.1,24.2,N/A,,Clear,200,2013-09-29 21:55:00
5:15 PM,76.8,41.2,28,29.88,10.0,South,16.1,23.0,N/A,,Clear,190,2013-09-29 22:15:00
5:35 PM,76.5,40.8,28,29.87,10.0,South,13.8,20.7,N/A,,Clear,180,2013-09-29 22:35:00
5:55 PM,74.5,41.0,30,29.87,10.0,South,11.5,17.3,N/A,,Clear,190,2013-09-29 22:55:00
6:15 PM,73.6,41.7,32,29.86,10.0,South,11.5,-,N/A,,Clear,190,2013-09-29 23:15:00
6:35 PM,72.5,42.4,34,29.87,10.0,South,10.4,-,N/A,,Clear,180,2013-09-29 23:35:00
6:55 PM,70.9,43.2,37,29.86,10.0,South,9.2,-,N/A,,Clear,180,2013-09-29 23:55:00
7:15 PM,69.6,43.0,38,29.87,10.0,South,8.1,-,N/A,,Clear,180,2013-09-30 00:15:00
7:35 PM,68.0,43.3,41,29.88,10.0,South,5.8,-,N/A,,Clear,180,2013-09-30 00:35:00
7:55 PM,66.6,43.3,43,29.87,10.0,South,10.4,-,N/A,,Clear,170,2013-09-30 00:55:00
8:15 PM,65.3,44.2,46,29.87,10.0,South,11.5,-,N/A,,Clear,170,2013-09-30 01:15:00
8:35 PM,64.4,45.0,49,29.87,10.0,South,9.2,-,N/A,,Clear,170,2013-09-30 01:35:00
8:55 PM,63.7,45.0,51,29.87,10.0,South,10.4,-,N/A,,Clear,170,2013-09-30 01:55:00
9:15 PM,61.9,45.3,55,29.89,10.0,South,6.9,-,N/A,,Clear,180,2013-09-30 02:15:00
9:35 PM,61.9,44.4,53,29.88,10.0,South,9.2,-,N/A,,Clear,170,2013-09-30 02:35:00
9:55 PM,61.7,43.9,52,29.87,10.0,South,12.7,-,N/A,,Clear,170,2013-09-30 02:55:00
10:15 PM,60.8,43.7,53,29.87,10.0,South,11.5,-,N/A,,Clear,170,2013-09-30 03:15:00
10:35 PM,60.8,43.2,52,29.87,10.0,South,13.8,-,N/A,,Clear,180,2013-09-30 03:35:00
10:55 PM,60.8,42.8,52,29.88,10.0,South,11.5,16.1,N/A,,Clear,180,2013-09-30 03:55:00
11:15 PM,60.8,43.0,52,29.87,10.0,South,12.7,-,N/A,,Clear,180,2013-09-30 04:15:00
11:35 PM,60.3,43.2,53,29.87,10.0,South,12.7,-,N/A,,Clear,180,2013-09-30 04:35:00
11:55 PM,59.4,43.5,56,29.87,10.0,South,12.7,-,N/A,,Clear,190,2013-09-30 04:55:00